Location: Allens Landing
(37.8284°N, 89.7284°W)
Time: 12:16:56
(UTC+00:00)

Vanguard 2 - Pass Details

Date: 22 December 2025
Orbit: 552 x 2898 km, 32.9° (Epoch: 13 January)

Event Time Altitude Azimuth Distance (km) Brightness Sun altitude
Exits shadow 11:22:14 13° 206° (SSW) 1,620 9.1 -20.8°
Drops below altitude 10° 11:24:08 10° 177° (S) 1,814 9.7 -20.5°
Sets 11:27:26 0° 149° (SSE) 2,791 11.1 -19.8°
